EW0693 Weather Reports


Display with metric or nautical units.
time (UTC)temp
F
wind
direction
speed
MPH
gust
MPH
rain 1hr
in
rain 24hr
in
rain mn
in
humidity
%
barometer
mb
20181215190456 35 105 0.0 1.0 0.00 0.00 0.00 89 1021.1
20181215185957 35 107 1.0 2.0 0.00 0.00 0.00 89 1021.1
20181215185457 35 107 1.0 2.0 0.00 0.00 0.00 89 1021.1
20181215184957 35 104 1.0 2.0 0.00 0.00 0.00 88 1021.1
20181215184456 34 104 1.0 2.0 0.00 0.00 0.00 89 1021.1
20181215183956 34 109 1.0 2.0 0.00 0.00 0.00 89 1021.1
20181215183456 34 112 1.0 2.0 0.00 0.00 0.00 89 1021.1
20181215182956 35 111 1.0 1.0 0.00 0.00 0.00 88 1021.1
20181215182456 35 115 1.0 1.0 0.00 0.00 0.00 87 1021.1
20181215181956 35 124 0.0 1.0 0.00 0.00 0.00 87 1021.1
20181215181456 35 125 0.0 1.0 0.00 0.00 0.00 86 1021.1
20181215180956 36 116 0.0 1.0 0.00 0.00 0.00 85 1021.1
20181215180456 35 120 0.0 1.0 0.00 0.00 0.00 89 1021.1
20181215175956 35 142 0.0 1.0 0.00 0.00 0.00 87 1021.1
20181215175456 35 0 0.0 0.0 0.00 0.00 0.00 88 1021.1
20181215174957 35 0 0.0 0.0 0.00 0.00 0.00 87 1021.1
20181215174456 35 0 0.0 0.0 0.00 0.00 0.00 86 1021.1
20181215173957 36 0 0.0 0.0 0.00 0.00 0.00 84 1021.1
20181215173456 36 109 0.0 1.0 0.00 0.00 0.00 85 1021.1
20181215172958 36 110 0.0 2.0 0.00 0.00 0.00 83 1021.1
20181215172457 37 113 1.0 2.0 0.00 0.00 0.00 82 1021.1
20181215171957 38 114 1.0 2.0 0.00 0.00 0.00 79 1021.1
20181215171456 39 104 0.0 2.0 0.00 0.00 0.00 80 1021.1
20181215170956 38 77 0.0 1.0 0.00 0.00 0.00 83 1021.1
20181215170456 38 94 1.0 3.0 0.00 0.00 0.00 82 1021.1
20181215165956 38 96 1.0 3.0 0.00 0.00 0.00 78 1021.1
20181215165457 39 90 0.0 3.0 0.00 0.00 0.00 76 1021.1
20181215164956 39 336 0.0 3.0 0.00 0.00 0.00 77 1021.1
20181215164456 39 341 0.0 3.0 0.00 0.00 0.00 77 1021.1
20181215163956 39 88 0.0 2.0 0.00 0.00 0.00 78 1021.1
20181215163456 38 86 0.0 1.0 0.00 0.00 0.00 78 1021.1
20181215162957 38 51 0.0 1.0 0.00 0.00 0.00 76 1021.1
20181215162456 37 347 0.0 1.0 0.00 0.00 0.00 77 1021.1
20181215161956 37 351 1.0 2.0 0.00 0.00 0.00 77 1021.1
20181215161456 36 338 1.0 3.0 0.00 0.00 0.00 78 1021.1
20181215160957 36 340 1.0 3.0 0.00 0.00 0.00 78 1021.1
20181215160456 35 336 1.0 3.0 0.00 0.00 0.00 79 1021.1
20181215155957 34 327 2.0 5.0 0.00 0.00 0.00 80 1021.1
20181215155456 34 323 2.0 5.0 0.00 0.00 0.00 80 1021.1
20181215154956 33 321 2.0 5.0 0.00 0.00 0.00 81 1021.1
20181215154457 33 321 2.0 4.0 0.00 0.00 0.00 82 1021.1
20181215153956 32 317 2.0 4.0 0.00 0.00 0.00 82 1021.0
20181215153456 32 317 2.0 5.0 0.00 0.00 0.00 83 1021.0
20181215152956 31 320 2.0 5.0 0.00 0.00 0.00 84 1021.0
20181215152457 31 318 2.0 5.0 0.00 0.00 0.00 85 1021.0
20181215151957 30 317 2.0 5.0 0.00 0.00 0.00 85 1021.0
20181215151456 30 323 2.0 4.0 0.00 0.00 0.00 85 1021.0
20181215150956 30 325 1.0 4.0 0.00 0.00 0.00 85 1021.0
20181215150456 29 321 1.0 4.0 0.00 0.00 0.00 86 1021.0
20181215145957 29 319 1.0 4.0 0.00 0.00 0.00 86 1021.0
20181215145456 29 313 0.0 3.0 0.00 0.00 0.00 87 1021.0
20181215144956 28 329 0.0 1.0 0.00 0.00 0.00 87 1021.0
20181215144457 28 344 0.0 2.0 0.00 0.00 0.00 88 1021.0
20181215143956 28 320 0.0 2.0 0.00 0.00 0.00 88 1021.0
20181215143456 28 318 0.0 2.0 0.00 0.00 0.00 88 1021.0
20181215142957 27 330 0.0 1.0 0.00 0.00 0.00 89 1021.0
20181215142456 27 316 0.0 1.0 0.00 0.00 0.00 88 1021.0
20181215141956 27 310 0.0 1.0 0.00 0.00 0.00 89 1021.0
20181215141456 27 310 0.0 1.0 0.00 0.00 0.00 90 1021.0
20181215140957 27 313 0.0 1.0 0.00 0.00 0.00 90 1021.0
20181215140456 26 315 0.0 1.0 0.00 0.00 0.00 91 1021.0
20181215135957 26 316 0.0 1.0 0.00 0.00 0.00 91 1021.0
20181215135457 26 312 0.0 2.0 0.00 0.00 0.00 92 1021.0
20181215134956 25 312 0.0 2.0 0.00 0.00 0.00 92 1021.0
20181215134456 25 314 0.0 1.0 0.00 0.00 0.00 93 1021.0
20181215133956 24 314 0.0 1.0 0.00 0.00 0.00 93 1021.0
20181215133456 24 311 0.0 1.0 0.00 0.00 0.00 93 1021.0
20181215132957 24 311 0.0 1.0 0.00 0.00 0.00 92 1021.0
20181215132456 24 0 0.0 0.0 0.00 0.00 0.00 92 1021.0
20181215131956 24 0 0.0 0.0 0.00 0.00 0.00 92 1021.0
20181215131457 25 0 0.0 0.0 0.00 0.00 0.00 92 1021.0
20181215130957 25 0 0.0 0.0 0.00 0.00 0.00 93 1021.0
20181215130458 25 0 0.0 0.0 0.00 0.00 0.00 93 1021.0
20181215125957 25 0 0.0 0.0 0.00 0.00 0.00 93 1021.0
20181215125458 24 0 0.0 0.0 0.00 0.00 0.00 92 1021.0
20181215124957 24 0 0.0 0.0 0.00 0.00 0.00 92 1021.0
20181215124456 25 0 0.0 0.0 0.00 0.00 0.00 92 1021.0
20181215123956 25 310 0.0 1.0 0.00 0.00 0.00 92 1021.0
20181215123456 25 310 0.0 1.0 0.00 0.00 0.00 92 1021.0
20181215122957 25 0 0.0 0.0 0.00 0.00 0.00 91 1021.0
20181215122456 25 0 0.0 0.0 0.00 0.00 0.00 91 1021.0
20181215121956 25 0 0.0 0.0 0.00 0.00 0.00 91 1021.0
20181215121457 25 313 0.0 1.0 0.00 0.00 0.00 91 1021.0
20181215120957 25 313 0.0 1.0 0.00 0.00 0.00 91 1021.0
20181215120457 25 319 0.0 1.0 0.00 0.00 0.00 91 1021.0
20181215115956 25 321 0.0 1.0 0.00 0.00 0.00 91 1021.0
20181215115456 25 331 0.0 1.0 0.00 0.00 0.00 91 1021.0
20181215114957 25 0 0.0 0.0 0.00 0.00 0.00 91 1021.0
20181215114457 26 0 0.0 0.0 0.00 0.00 0.00 91 1021.0
20181215113957 26 0 0.0 0.0 0.00 0.00 0.00 91 1021.0
20181215113456 26 0 0.0 0.0 0.00 0.00 0.00 91 1021.1
20181215112956 26 0 0.0 0.0 0.00 0.00 0.00 90 1021.0
20181215112457 26 0 0.0 0.0 0.00 0.00 0.00 90 1021.0
20181215111957 26 0 0.0 0.0 0.00 0.00 0.00 90 1021.1
20181215111457 26 0 0.0 0.0 0.00 0.00 0.00 90 1021.1
20181215110956 26 0 0.0 0.0 0.00 0.00 0.00 90 1021.1
20181215110456 26 0 0.0 0.0 0.00 0.00 0.00 90 1021.1
20181215105956 26 0 0.0 0.0 0.00 0.00 0.00 89 1021.0
20181215105457 26 0 0.0 0.0 0.00 0.00 0.00 89 1021.1
20181215104957 26 312 0.0 3.0 0.00 0.00 0.00 89 1021.1
20181215104456 27 312 0.0 3.0 0.00 0.00 0.00 89 1021.1
20181215103957 27 312 0.0 2.0 0.00 0.00 0.00 88 1021.1
20181215103457 27 318 0.0 2.0 0.00 0.00 0.00 88 1021.1
20181215102956 27 318 1.0 3.0 0.00 0.00 0.00 88 1021.1
20181215102456 27 316 0.0 4.0 0.00 0.00 0.00 89 1021.1
20181215101957 27 320 0.0 4.0 0.00 0.00 0.00 89 1021.1
20181215101457 27 325 0.0 3.0 0.00 0.00 0.00 89 1021.1
20181215100956 27 317 0.0 3.0 0.00 0.00 0.00 89 1021.1
20181215100456 27 321 0.0 3.0 0.00 0.00 0.00 89 1021.1
20181215095957 27 325 0.0 5.0 0.00 0.00 0.00 89 1021.1
20181215095457 27 317 1.0 5.0 0.00 0.00 0.00 90 1021.1
20181215094956 27 314 1.0 4.0 0.00 0.00 0.00 90 1021.1
20181215094457 27 318 1.0 4.0 0.00 0.00 0.00 90 1021.1
20181215093957 27 324 0.0 3.0 0.00 0.00 0.00 91 1021.1
20181215093457 27 333 0.0 2.0 0.00 0.00 0.00 91 1021.1
20181215092957 26 350 0.0 2.0 0.00 0.00 0.00 91 1021.1
20181215092456 26 17 0.0 1.0 0.00 0.00 0.00 91 1021.1
20181215091956 26 0 0.0 0.0 0.00 0.00 0.00 91 1021.1
20181215091457 26 0 0.0 0.0 0.00 0.00 0.00 91 1021.1
20181215090957 27 0 0.0 0.0 0.00 0.00 0.00 90 1021.1
20181215090456 27 0 0.0 0.0 0.00 0.00 0.00 90 1021.1
20181215085957 28 0 0.0 0.0 0.00 0.00 0.00 90 1021.1
20181215085457 28 0 0.0 0.0 0.00 0.00 0.00 91 1021.1
20181215084957 28 0 0.0 0.0 0.00 0.00 0.00 91 1021.1
20181215084457 28 0 0.0 0.0 0.00 0.00 0.00 91 1021.1
20181215083957 28 0 0.0 0.0 0.00 0.00 0.00 91 1021.1
20181215083457 28 0 0.0 0.0 0.00 0.00 0.00 91 1021.1
20181215082956 28 297 0.0 1.0 0.00 0.00 0.00 91 1021.1
20181215082457 28 297 0.0 1.0 0.00 0.00 0.00 91 1021.1
20181215081957 28 260 0.0 1.0 0.00 0.00 0.00 90 1021.1
20181215081457 28 260 0.0 1.0 0.00 0.00 0.00 90 1021.1
20181215080957 29 252 0.0 1.0 0.00 0.00 0.00 89 1021.1
20181215080457 29 252 0.0 1.0 0.00 0.00 0.00 89 1021.1
20181215075957 30 0 0.0 0.0 0.00 0.00 0.00 89 1021.1
20181215075458 30 0 0.0 0.0 0.00 0.00 0.00 89 1021.1
20181215074956 30 253 0.0 1.0 0.00 0.00 0.00 89 1021.1
20181215074457 31 249 0.0 2.0 0.00 0.00 0.00 89 1021.1
20181215073957 31 249 1.0 4.0 0.00 0.00 0.00 89 1021.1
20181215073457 31 250 2.0 4.0 0.00 0.00 0.00 89 1021.1
20181215072957 30 250 1.0 4.0 0.00 0.00 0.00 90 1021.1
20181215072457 30 246 0.0 2.0 0.00 0.00 0.00 87 1021.1
20181215071956 30 244 0.0 2.0 0.00 0.00 0.00 87 1021.1
20181215071458 30 247 0.0 1.0 0.00 0.00 0.00 87 1021.1
20181215070957 30 254 0.0 1.0 0.00 0.00 0.00 87 1021.1
20181215070456 30 249 0.0 1.0 0.00 0.00 0.00 88 1021.1
20181215065957 30 248 0.0 1.0 0.00 0.00 0.00 88 1021.1
20181215065458 30 253 0.0 2.0 0.00 0.00 0.00 87 1021.1
20181215064957 29 253 0.0 2.0 0.00 0.00 0.00 87 1021.1
20181215064456 29 0 0.0 0.0 0.00 0.00 0.00 85 1021.1
20181215063958 29 0 0.0 0.0 0.00 0.00 0.00 84 1021.1
20181215063457 29 0 0.0 0.0 0.00 0.00 0.00 83 1021.1
20181215062957 30 0 0.0 0.0 0.00 0.00 0.00 83 1021.1
20181215062456 30 0 0.0 0.0 0.00 0.00 0.00 83 1021.1
20181215061957 30 0 0.0 0.0 0.00 0.00 0.00 82 1021.1
20181215061457 30 0 0.0 0.0 0.00 0.00 0.00 82 1021.1
20181215060957 30 0 0.0 0.0 0.00 0.00 0.00 82 1021.1
20181215060457 30 0 0.0 0.0 0.00 0.00 0.00 82 1021.1
20181215055957 30 0 0.0 0.0 0.00 0.00 0.00 81 1021.1
20181215055458 30 282 0.0 1.0 0.00 0.00 0.00 81 1021.1
20181215054956 30 275 0.0 1.0 0.00 0.00 0.00 80 1021.1
20181215054457 31 259 0.0 1.0 0.00 0.00 0.00 80 1021.1
20181215053957 31 280 0.0 1.0 0.00 0.00 0.00 80 1021.1
20181215053457 31 288 0.0 1.0 0.00 0.00 0.00 79 1021.1
20181215052956 31 309 0.0 4.0 0.00 0.00 0.00 79 1021.1
20181215052457 32 312 0.0 4.0 0.00 0.00 0.00 78 1021.1
20181215051957 32 309 0.0 3.0 0.00 0.00 0.00 78 1021.1
20181215051457 32 305 0.0 3.0 0.00 0.00 0.00 78 1021.1
20181215050957 32 290 0.0 4.0 0.00 0.00 0.00 78 1021.1
20181215050457 32 286 0.0 4.0 0.00 0.00 0.00 78 1021.1
20181215045958 32 305 0.0 3.0 0.00 0.00 0.00 78 1021.1
20181215045457 32 301 0.0 3.0 0.00 0.00 0.00 78 1021.1
20181215044957 32 296 0.0 3.0 0.00 0.00 0.00 77 1021.1
20181215044457 32 291 0.0 3.0 0.00 0.00 0.00 77 1021.1
20181215043958 32 292 0.0 2.0 0.00 0.00 0.00 77 1021.1
20181215043456 32 283 0.0 2.0 0.00 0.00 0.00 77 1021.1
20181215042957 32 263 0.0 2.0 0.00 0.00 0.00 76 1021.1
20181215042457 32 270 0.0 2.0 0.00 0.00 0.00 76 1021.1
20181215041957 33 279 0.0 4.0 0.00 0.00 0.00 75 1021.1
20181215041456 33 270 1.0 4.0 0.00 0.00 0.00 75 1021.1
20181215040958 33 266 0.0 3.0 0.00 0.00 0.00 75 1021.1
20181215040458 33 276 1.0 5.0 0.00 0.00 0.00 75 1021.1
20181215035957 33 270 1.0 5.0 0.00 0.00 0.00 74 1021.1
20181215035458 33 269 0.0 5.0 0.00 0.00 0.00 74 1021.1
20181215034957 33 273 1.0 5.0 0.00 0.00 0.00 74 1021.1
20181215034457 33 275 0.0 5.0 0.00 0.00 0.00 74 1021.1
20181215033957 33 271 0.0 6.0 0.00 0.00 0.00 74 1021.1
20181215033457 33 266 1.0 6.0 0.00 0.00 0.00 73 1021.1
20181215032957 33 267 1.0 5.0 0.00 0.00 0.00 74 1021.1
20181215032457 33 278 0.0 4.0 0.00 0.00 0.00 73 1021.1
20181215031957 33 270 1.0 4.0 0.00 0.00 0.00 73 1021.1
20181215031458 33 264 1.0 4.0 0.00 0.00 0.00 73 1021.1
20181215030958 34 265 1.0 5.0 0.00 0.00 0.00 73 1021.1
20181215030457 34 264 1.0 5.0 0.00 0.00 0.00 73 1021.1
20181215025957 33 266 1.0 4.0 0.00 0.00 0.00 73 1021.1
20181215025457 33 277 1.0 4.0 0.00 0.00 0.00 73 1021.1
20181215024956 33 270 1.0 6.0 0.00 0.00 0.00 74 1021.1
20181215024457 33 261 1.0 6.0 0.00 0.00 0.00 74 1021.1
20181215023957 33 265 1.0 5.0 0.00 0.00 0.00 74 1021.1
20181215023457 33 266 1.0 6.0 0.00 0.00 0.00 74 1021.1
20181215022958 33 263 2.0 7.0 0.00 0.00 0.00 73 1021.1
20181215022458 33 261 2.0 7.0 0.00 0.00 0.00 73 1021.1
20181215021957 33 259 1.0 7.0 0.00 0.00 0.00 74 1021.1
20181215021457 33 260 1.0 5.0 0.00 0.00 0.00 74 1021.1
20181215020957 33 261 1.0 5.0 0.00 0.00 0.00 74 1021.1
20181215020457 34 264 1.0 7.0 0.00 0.00 0.00 74 1021.1
20181215015957 34 268 2.0 7.0 0.00 0.00 0.00 74 1021.1
20181215015457 34 266 2.0 7.0 0.00 0.00 0.00 74 1021.1
20181215014958 34 262 2.0 6.0 0.00 0.00 0.00 74 1021.1
20181215014457 34 260 2.0 7.0 0.00 0.00 0.00 75 1021.1
20181215013957 34 258 2.0 7.0 0.00 0.00 0.00 74 1021.1
20181215013457 34 260 2.0 7.0 0.00 0.00 0.00 74 1021.1
20181215012957 34 260 3.0 9.0 0.00 0.00 0.00 74 1021.1
20181215012457 34 260 3.0 9.0 0.00 0.00 0.00 74 1021.1
20181215011957 34 260 3.0 9.0 0.00 0.00 0.00 75 1021.1
20181215011457 34 258 3.0 8.0 0.00 0.00 0.00 75 1021.1
20181215010958 34 259 3.0 8.0 0.00 0.00 0.00 76 1021.1
20181215010457 34 258 3.0 6.0 0.00 0.00 0.00 76 1021.1
20181215005957 34 256 3.0 7.0 0.00 0.00 0.00 77 1021.1
20181215005458 34 254 4.0 7.0 0.00 0.00 0.00 78 1021.1
20181215004957 34 252 4.0 7.0 0.00 0.00 0.00 80 1021.1
20181215004457 34 249 4.0 7.0 0.00 0.00 0.00 81 1021.1
20181215003957 34 248 5.0 7.0 0.00 0.00 0.00 82 1021.1
20181215003457 34 247 5.0 7.0 0.00 0.00 0.00 81 1021.1
20181215002957 34 247 5.0 7.0 0.00 0.00 0.00 82 1021.1
20181215002457 34 248 5.0 6.0 0.00 0.00 0.00 82 1021.1
20181215001957 34 249 5.0 7.0 0.00 0.00 0.00 82 1021.1
20181215001457 34 248 5.0 7.0 0.00 0.00 0.00 82 1021.1
20181215000957 34 245 5.0 7.0 0.00 0.00 0.00 82 1021.1
20181215000457 34 243 5.0 7.0 0.00 0.00 0.00 83 1021.1
20181214235957 34 243 4.0 6.0 0.00 0.00 0.00 85 1021.1
20181214235457 34 243 4.0 6.0 0.00 0.00 0.00 86 1021.1
20181214234957 34 244 4.0 6.0 0.00 0.00 0.00 87 1021.1
20181214234458 34 244 4.0 6.0 0.00 0.00 0.00 89 1021.1
20181214233957 34 242 3.0 5.0 0.00 0.00 0.00 92 1021.1
20181214233457 34 239 3.0 5.0 0.00 0.00 0.00 93 1021.1
20181214232957 34 237 4.0 5.0 0.00 0.00 0.00 93 1021.1
20181214232457 34 240 4.0 6.0 0.00 0.00 0.00 93 1021.1
20181214231958 34 243 4.0 6.0 0.00 0.00 0.00 93 1021.1
20181214231458 34 247 4.0 6.0 0.00 0.00 0.00 94 1021.1
20181214230957 35 245 5.0 6.0 0.00 0.00 0.00 94 1021.1
20181214230458 35 243 5.0 6.0 0.00 0.00 0.00 93 1021.1
20181214225958 35 243 6.0 8.0 0.00 0.00 0.00 93 1021.1
20181214225457 35 245 6.0 8.0 0.00 0.00 0.00 93 1021.1
20181214224958 35 249 6.0 8.0 0.00 0.00 0.00 93 1021.1
20181214224457 35 248 5.0 7.0 0.00 0.00 0.00 93 1021.1
20181214223957 35 239 6.0 10.0 0.00 0.00 0.00 92 1021.1
20181214223457 35 232 7.0 10.0 0.00 0.00 0.00 93 1021.1
20181214222957 35 233 7.0 10.0 0.00 0.00 0.00 93 1021.1
20181214222457 35 238 6.0 9.0 0.00 0.00 0.00 93 1021.1
20181214221957 35 242 5.0 8.0 0.00 0.00 0.00 93 1021.1
20181214221457 35 244 5.0 7.0 0.00 0.00 0.00 93 1021.1
20181214220958 35 245 5.0 9.0 0.00 0.00 0.00 93 1021.1
20181214220457 35 238 6.0 10.0 0.00 0.00 0.00 92 1021.1
20181214215957 36 227 8.0 11.0 0.00 0.00 0.00 91 1021.1
20181214215457 36 223 8.0 11.0 0.00 0.00 0.00 91 1021.1
20181214214957 36 224 8.0 11.0 0.00 0.00 0.00 91 1021.1
20181214214457 36 224 7.0 10.0 0.00 0.00 0.00 91 1021.1
20181214213957 36 223 7.0 10.0 0.00 0.00 0.00 91 1021.1
20181214213458 36 221 7.0 10.0 0.00 0.00 0.00 91 1021.1
20181214212958 36 219 7.0 10.0 0.00 0.00 0.00 91 1021.1
20181214212457 36 223 7.0 10.0 0.00 0.00 0.00 91 1021.1
20181214211957 36 226 7.0 9.0 0.00 0.00 0.00 91 1021.1
20181214211459 36 224 7.0 10.0 0.00 0.00 0.00 91 1021.1
20181214210957 36 221 8.0 11.0 0.00 0.00 0.00 91 1021.1
20181214210457 36 219 8.0 11.0 0.00 0.00 0.00 91 1021.1
20181214205957 36 218 8.0 11.0 0.00 0.00 0.00 91 1021.1
20181214205458 36 219 8.0 11.0 0.00 0.00 0.00 91 1021.1
20181214204958 36 217 9.0 11.0 0.00 0.00 0.00 91 1021.1
20181214204457 36 214 9.0 12.0 0.00 0.00 0.00 91 1021.1
20181214203958 36 214 9.0 13.0 0.00 0.00 0.00 91 1021.1
20181214203457 36 213 9.0 14.0 0.00 0.00 0.00 92 1021.1
20181214202957 36 210 9.0 14.0 0.00 0.00 0.00 92 1021.1
20181214202457 36 209 9.0 13.0 0.00 0.00 0.00 92 1021.1
20181214201958 36 209 8.0 13.0 0.00 0.00 0.00 92 1021.1
20181214201457 36 208 8.0 13.0 0.00 0.00 0.00 92 1021.1
20181214200957 35 212 8.0 13.0 0.00 0.00 0.00 92 1021.1
20181214200457 35 215 8.0 13.0 0.00 0.00 0.00 92 1021.1
20181214195957 35 213 9.0 13.0 0.00 0.00 0.00 92 1021.1
20181214195458 35 214 9.0 12.0 0.00 0.00 0.00 92 1021.1
20181214194957 35 214 9.0 12.0 0.00 0.00 0.00 92 1021.1
20181214194458 35 211 8.0 12.0 0.00 0.00 0.00 92 1021.1
20181214193958 35 208 8.0 12.0 0.00 0.00 0.00 92 1021.1
20181214193457 35 206 8.0 12.0 0.00 0.00 0.00 92 1021.1
20181214192957 35 206 9.0 15.0 0.00 0.00 0.00 92 1021.1
20181214192458 35 205 9.0 15.0 0.00 0.00 0.00 91 1021.1
20181214191958 35 203 10.0 13.0 0.00 0.00 0.00 92 1021.1
20181214191458 35 203 9.0 14.0 0.00 0.00 0.00 92 1021.1
20181214190959 35 205 9.0 14.0 0.00 0.00 0.00 92 1021.1